User: anonymous   Login
Location: The D'Auria's Ocala Star Observatory
(29.0276°N, 82.1742°W)
Time: 02:27:39
(UTC-04:00)
Language:

Okean 3 Rocket - Orbit

View from above orbital plane
View from above orbital plane
View from above satellite
View from above satellite

Ground track
Ground track

The orbit data is extracted from the following two-line orbital elements,

1 21398U 91039B   16147.46669398  .00000111  00000-0  11736-4 0  9990
2 21398  82.5244 226.1525 0021772  14.4514 115.3707 14.79606461346721
Epoch (UTC): 26 May 2016 11:12:02
Eccentricity: 0.0021772
inclination: 82.5244°
perigee height: 615 km
apogee height: 646 km
right ascension of ascending node: 226.1525°
argument of perigee: 14.4514°
revolutions per day: 14.79606461
mean anomaly at epoch: 115.3707°
orbit number at epoch: 34672

The dashed part of the orbit path shows where the satellite is in the earth's shadow,  

DLR